SCP
-0 -0 -0 -0 -0 -0 -0 -0 -0 -0 0 0 -0 -0 -0 -0 0 0 0 0 0 0
-0 -0 -0 -0 -0 -0 -0 0 0 0 -0 -0 -0 -0 -0 0 0 0 0 0 0 0
-0 -0 -0 -0 -0 -0 -0 -0 0 0 0 -0 0 0 0 0 0 0 0 0 0 0
-0 -0 -0 -0 -0 -0 -0 -0 -0 0 0 0 0 0 0 0 0 0 0 0 0 0
-1 -0 -0 -0 -0 -0 -0 -0 -0 -0 -0 0 0 0 0 0 0 0 0 0 0 0
-0 -0 -0 -0 -0 -0 -0 -0 -0 -0 -0 -0 -0 0 0 0 0 0 0 0 0 0
-0 -0 0 0 -0 -0 -0 0 -0 -0 -0 -0 0 -0 0 0 0 0 0 0 0 0
0 0 1 0 0 0 0 0 0 0 0 0 0 0 0 0 0 0 0 0 0 0
1 1 1 1 1 1 1 0 0 0 0 0 0 0 -0 0 0 0 0 0 0 0
4 1 1 2 2 1 1 0 0 0 0 0 0 0 -0 -0 0 0 0 0 0 0
6 4 3 2 2 2 1 0 0 0 0 0 0 0 0 -0 0 0 0 0 0 0
7 6 4 4 3 2 1 0 0 0 0 0 0 0 0 0 0 0 0 0 0 0
5 6 5 5 4 3 1 0 0 0 0 0 0 0 0 0 0 0 0 0 0 0
5 6 6 6 4 1 0 0 0 0 0 0 0 0 0 0 0 0 0 0 0 0
Wind_Speed_500mb
47 45 42 37 34 29 31 37 39 37 31 26 20 18 17 19 20 21 21 20 24 23
53 51 46 42 39 32 27 29 40 42 36 30 22 21 20 21 23 22 20 22 17 21
56 56 52 46 44 38 31 31 30 33 33 28 24 25 24 25 25 24 21 20 14 20
63 59 57 57 49 43 40 42 38 35 33 30 30 30 30 30 28 26 22 16 15 20
63 64 63 64 58 51 50 49 49 44 42 39 38 35 34 32 30 27 23 19 20 22
69 68 68 68 64 60 57 56 52 50 49 46 45 39 37 34 32 29 25 22 19 19
78 73 68 68 67 67 66 64 58 55 51 49 47 44 41 36 33 31 26 22 22 21
86 81 79 75 69 70 72 69 62 56 53 52 52 49 43 38 35 31 27 26 24 22
100 90 85 85 79 76 76 74 70 64 59 57 54 50 43 39 38 33 29 27 27 25
110 92 93 90 86 82 82 80 76 72 66 63 55 48 45 42 38 33 30 30 28 25
113 105 103 98 93 88 87 86 84 79 76 63 52 46 45 42 36 33 33 31 28 25
107 116 114 107 103 94 91 89 90 85 81 49 51 42 39 40 40 39 37 35 33 29
99 110 121 118 107 99 91 88 92 89 84 62 60 56 42 45 47 45 42 41 36 32
92 103 111 109 104 86 81 95 97 86 87 69 57 56 45 53 55 56 45 44 41 37
Wind_Direction_500mb
222 223 227 228 228 227 236 233 227 239 238 238 247 243 256 261 267 273 274 281 284 264
223 225 227 229 229 224 226 226 234 231 234 232 239 251 260 271 270 270 280 298 281 232
225 228 227 230 228 225 223 216 211 204 217 228 242 252 265 273 273 271 280 293 256 228
228 228 229 230 228 226 223 221 223 222 226 236 246 255 264 267 268 265 274 274 254 240
230 229 230 230 230 227 224 224 227 231 235 239 246 253 262 264 264 263 269 263 257 238
230 229 231 232 230 228 227 228 233 234 237 242 247 254 261 260 259 260 261 259 240 228
232 230 230 232 231 230 228 229 231 233 236 240 246 252 258 255 252 253 250 242 229 219
235 234 232 233 232 231 230 231 232 234 235 237 242 249 253 249 249 247 237 230 217 212
235 234 234 234 233 231 230 230 229 230 233 236 240 245 247 245 244 236 232 223 214 210
238 232 235 236 234 233 230 231 229 230 228 231 234 240 237 238 236 237 222 212 212 217
246 242 239 237 235 232 230 231 230 230 231 228 233 235 232 233 232 229 219 215 213 209
245 241 239 237 235 232 229 229 230 230 230 216 240 232 229 235 229 215 212 216 214 211
247 246 243 239 235 231 229 232 232 232 229 223 220 205 218 234 229 223 210 210 214 206
251 250 250 244 236 236 240 231 230 232 223 216 218 203 212 233 223 225 216 211 209 204
Wind_Speed_850mb
47 45 42 37 34 29 31 37 39 37 31 26 20 18 17 19 20 21 21 20 24 23
53 51 46 42 39 32 27 29 40 42 36 30 22 21 20 21 23 22 20 22 17 21
56 56 52 46 44 38 31 31 30 33 33 28 24 25 24 25 25 24 21 20 14 20
63 59 57 57 49 43 40 42 38 35 33 30 30 30 30 30 28 26 22 16 15 20
63 64 63 64 58 51 50 49 49 44 42 39 38 35 34 32 30 27 23 19 20 22
69 68 68 68 64 60 57 56 52 50 49 46 45 39 37 34 32 29 25 22 19 19
78 73 68 68 67 67 66 64 58 55 51 49 47 44 41 36 33 31 26 22 22 21
86 81 79 75 69 70 72 69 62 56 53 52 52 49 43 38 35 31 27 26 24 22
100 90 85 85 79 76 76 74 70 64 59 57 54 50 43 39 38 33 29 27 27 25
110 92 93 90 86 82 82 80 76 72 66 63 55 48 45 42 38 33 30 30 28 25
113 105 103 98 93 88 87 86 84 79 76 63 52 46 45 42 36 33 33 31 28 25
107 116 114 107 103 94 91 89 90 85 81 49 51 42 39 40 40 39 37 35 33 29
99 110 121 118 107 99 91 88 92 89 84 62 60 56 42 45 47 45 42 41 36 32
92 103 111 109 104 86 81 95 97 86 87 69 57 56 45 53 55 56 45 44 41 37
Wind_Direction_850mb
222 223 227 228 228 227 236 233 227 239 238 238 247 243 256 261 267 273 274 281 284 264
223 225 227 229 229 224 226 226 234 231 234 232 239 251 260 271 270 270 280 298 281 232
225 228 227 230 228 225 223 216 211 204 217 228 242 252 265 273 273 271 280 293 256 228
228 228 229 230 228 226 223 221 223 222 226 236 246 255 264 267 268 265 274 274 254 240
230 229 230 230 230 227 224 224 227 231 235 239 246 253 262 264 264 263 269 263 257 238
230 229 231 232 230 228 227 228 233 234 237 242 247 254 261 260 259 260 261 259 240 228
232 230 230 232 231 230 228 229 231 233 236 240 246 252 258 255 252 253 250 242 229 219
235 234 232 233 232 231 230 231 232 234 235 237 242 249 253 249 249 247 237 230 217 212
235 234 234 234 233 231 230 230 229 230 233 236 240 245 247 245 244 236 232 223 214 210
238 232 235 236 234 233 230 231 229 230 228 231 234 240 237 238 236 237 222 212 212 217
246 242 239 237 235 232 230 231 230 230 231 228 233 235 232 233 232 229 219 215 213 209
245 241 239 237 235 232 229 229 230 230 230 216 240 232 229 235 229 215 212 216 214 211
247 246 243 239 235 231 229 232 232 232 229 223 220 205 218 234 229 223 210 210 214 206
251 250 250 244 236 236 240 231 230 232 223 216 218 203 212 233 223 225 216 211 209 204